Location: Carlisle
(34.5501°N, 84.5969°W)
Time: 05:19:32
(UTC+00:00)

DUCHIFAT 1 - Visible Passes

Search period start: 23 March 2023 00:00
Search period end: 02 April 2023 00:00
Orbit: 571 x 585 km, 98.0° (Epoch: 22 March)

Date Brightness Start Highest point End Pass type
(mag) Time Alt. Az. Time Alt. Az. Time Alt. Az.
23 Mar ? 08:51:35 10° N 08:51:37 10° N 08:51:37 10° N visible
24 Mar ? 08:55:56 10° N 08:56:09 11° N 08:56:09 11° N visible
25 Mar ? 09:00:16 10° N 09:00:39 12° N 09:00:39 12° N visible
26 Mar ? 09:04:34 10° N 09:05:09 14° N 09:05:09 14° N visible
27 Mar ? 09:08:53 10° N 09:09:36 15° N 09:09:36 15° N visible
28 Mar ? 09:13:11 10° N 09:14:02 15° N 09:14:02 15° N visible
29 Mar ? 09:17:28 10° N 09:18:27 16° N 09:18:27 16° N visible
30 Mar ? 09:21:44 10° N 09:22:50 17° NNW 09:22:50 17° NNW visible
31 Mar ? 09:26:00 10° N 09:27:13 17° NNW 09:27:13 17° NNW visible
01 Apr ? 09:30:15 10° NNW 09:31:34 18° NNW 09:31:34 18° NNW visible
